Clayton Lake, ME

1:59 PM EDT on June 25, 2017 (GMT -0400)
Clayton Lake

Weather History for K40B - August, 2014

Change the Weather History Date:

Friday, August 22, 2014

  Actual Average Record
Temperature  
Mean Temperature 62 °F -  
Max Temperature 71 °F 69 °F 77 °F (2015)
Min Temperature 53 °F 47 °F 43 °F (1998)
Degree Days  
Heating Degree Days 3    
Growing Degree Days 12 (Base 50)    
Moisture  
Dew Point 56 °F    
Average Humidity 83    
Maximum Humidity 98    
Minimum Humidity 56    
Precipitation  
Precipitation 0.00 in - - ()
Sea Level Pressure  
Sea Level Pressure 30.17 in    
Wind  
Wind Speed 2 mph (North)    
Max Wind Speed 7 mph    
Max Gust Speed 14 mph    
Averages and records for this station are not official NWS values.
T = Trace of Precipitation, MM = Missing Value Source: NWS Daily Summary

Daily Weather History Graph

Daily Weather History Graph

Search for Another Location

Airport or City:

Trip Planner

Search our weather history database for the weather conditions in past years. The results will help you decide how hot, cold, wet, or windy it might be!

Date:

Astronomy

Aug. 22, 2014 Rise Set
Actual Time 5:45 AM EDT 7:35 PM EDT
Civil Twilight 5:12 AM EDT 8:08 PM EDT
Nautical Twilight 4:33 AM EDT 8:47 PM EDT
Astronomical Twilight 3:49 AM EDT 9:30 PM EDT
Moon 3:00 AM EDT (8/22) 5:45 PM EDT (8/22)
Length of Visible Light 14h 55m
Length of Day
13h 50m
Waning Crescent, 8% of the Moon is Illuminated
Aug 22
Waning Crescent
Aug 25
New
Sep 2
First Quarter
Sep 8
Full
Sep 15
Last Quarter

Hourly Weather History & Observations

Time (EDT) Temp. Dew Point Humidity Pressure Visibility Wind Dir Wind Speed Gust Speed Precip Events Conditions
12:16 AM 54.7 °F 53.8 °F 97% 30.14 in - Calm Calm - N/A   Unknown
1:16 AM 54.7 °F 54.1 °F 98% 30.14 in - Calm Calm - N/A   Unknown
2:16 AM 54.7 °F 54.1 °F 98% 30.14 in - Calm Calm - N/A   Unknown
3:16 AM 55.9 °F 55.4 °F 98% 30.15 in - Calm Calm - N/A   Unknown
4:16 AM 55.8 °F 55.0 °F 97% 30.15 in - Calm Calm - N/A   Unknown
5:16 AM 56.5 °F 55.9 °F 98% 30.15 in - Calm Calm - N/A   Unknown
6:16 AM 56.3 °F 55.8 °F 98% 30.17 in - Variable 2.3 mph - N/A   Unknown
7:16 AM 59.7 °F 58.6 °F 96% 30.19 in - Variable 2.3 mph - N/A   Unknown
8:16 AM 61.2 °F 58.8 °F 92% 30.20 in - Variable 3.5 mph - N/A   Unknown
9:16 AM 63.5 °F 57.9 °F 82% 30.21 in - Variable 4.6 mph - N/A   Unknown
10:16 AM 65.5 °F 58.6 °F 79% 30.20 in - Variable 2.3 mph - N/A   Unknown
11:16 AM 67.5 °F 55.0 °F 64% 30.19 in - Variable 4.6 mph - N/A   Unknown
12:16 PM 68.9 °F 54.5 °F 60% 30.18 in - Variable 4.6 mph - N/A   Unknown
1:17 PM 68.9 °F 54.7 °F 60% 30.17 in - Variable 6.9 mph 13.8 mph N/A   Unknown
2:16 PM 70.7 °F 54.5 °F 56% 30.16 in - Variable 5.8 mph - N/A   Unknown
3:16 PM 68.2 °F 55.9 °F 65% 30.16 in - Variable 5.8 mph - N/A   Unknown
4:16 PM 68.5 °F 54.9 °F 62% 30.15 in - Variable 4.6 mph - N/A   Unknown
5:16 PM 68.5 °F 57.0 °F 67% 30.15 in - Variable 3.5 mph - N/A   Unknown
6:16 PM 67.5 °F 57.4 °F 70% 30.15 in - Variable 4.6 mph - N/A   Unknown
7:16 PM 64.0 °F 58.5 °F 82% 30.15 in - Calm Calm - N/A   Unknown
8:16 PM 59.7 °F 58.1 °F 94% 30.16 in - Calm Calm - N/A   Unknown
9:16 PM 57.7 °F 56.7 °F 96% 30.17 in - Calm Calm - N/A   Unknown
10:16 PM 55.2 °F 54.3 °F 97% 30.17 in - Calm Calm - N/A   Unknown
11:16 PM 53.2 °F 52.7 °F 98% 30.17 in - Calm Calm - 0.00 in   Unknown